Location: *
(39.6167°S, 171.5333°W)
Time: 18:34:59
(UTC+00:00)

Cosmos 2058 - Pass Details

Date: 13 May 2021
Orbit: 561 x 584 km, 82.5° (Epoch: 20 June)

Event Time Altitude Azimuth Distance (km) Brightness Sun altitude
Exits shadow 17:33:49 - 219° (SW) 2,117 5.3 -9.6°
Reaches altitude 10° 17:34:28 10° 225° (SW) 1,929 5.1 -9.5°
Maximum altitude 17:37:19 18° 267° (W) 1,488 4.4 -9.0°
Drops below altitude 10° 17:40:09 10° 309° (NW) 1,914 5.3 -8.4°
Sets 17:42:54 0° 328° (NNW) 2,805 6.3 -7.9°
